TimeCDT,TemperatureF,Dew PointF,Humidity,Sea Level PressureIn,VisibilityMPH,Wind Direction,Wind SpeedMPH,Gust SpeedMPH,PrecipitationIn,Events,Conditions,WindDirDegrees,DateUTC
12:58 AM,77.2,70.9,81,29.98,10.0,South,6.9,-,N/A,,Clear,180,2013-07-20 05:58:00
1:58 AM,76.8,70.7,81,29.98,10.0,WSW,4.6,-,N/A,,Clear,240,2013-07-20 06:58:00
2:58 AM,76.6,70.2,80,29.98,10.0,SW,3.5,-,N/A,,Mostly Cloudy,220,2013-07-20 07:58:00
3:58 AM,75.9,69.1,79,29.99,10.0,SW,4.6,-,N/A,,Clear,220,2013-07-20 08:58:00
4:58 AM,75.4,69.1,81,29.99,10.0,South,3.5,-,N/A,,Clear,190,2013-07-20 09:58:00
5:58 AM,71.6,68.7,91,29.99,10.0,SE,4.6,-,N/A,,Clear,130,2013-07-20 10:58:00
6:58 AM,73.8,69.8,87,29.99,10.0,Calm,Calm,-,N/A,,Clear,0,2013-07-20 11:58:00
7:58 AM,76.8,70.0,79,29.99,10.0,SW,3.5,-,N/A,,Clear,220,2013-07-20 12:58:00
8:58 AM,81.0,69.6,68,29.99,10.0,Variable,4.6,-,N/A,,Clear,0,2013-07-20 13:58:00
9:58 AM,83.3,68.7,61,29.99,10.0,WNW,5.8,-,N/A,,Clear,300,2013-07-20 14:58:00
10:58 AM,85.5,69.3,58,30.00,10.0,WSW,5.8,-,N/A,,Partly Cloudy,240,2013-07-20 15:58:00
11:58 AM,87.1,68.2,53,29.99,10.0,West,4.6,-,N/A,,Clear,260,2013-07-20 16:58:00
12:58 PM,86.5,67.6,53,29.98,10.0,NNE,3.5,-,N/A,,Mostly Cloudy,20,2013-07-20 17:58:00
1:58 PM,89.6,67.6,48,29.96,10.0,Variable,2.3,-,N/A,,Mostly Cloudy,0,2013-07-20 18:58:00
2:58 PM,91.2,67.5,45,29.94,10.0,SE,6.9,-,N/A,,Scattered Clouds,130,2013-07-20 19:58:00
3:58 PM,91.2,65.7,43,29.91,10.0,SSE,9.2,-,N/A,,Clear,150,2013-07-20 20:58:00
4:58 PM,92.8,64.8,39,29.88,10.0,South,12.7,-,N/A,,Clear,190,2013-07-20 21:58:00
5:58 PM,92.1,67.3,44,29.88,10.0,SSE,12.7,-,N/A,,Clear,160,2013-07-20 22:58:00
6:58 PM,89.1,66.7,48,29.87,10.0,SSW,8.1,-,N/A,,Clear,200,2013-07-20 23:58:00
7:36 PM,89.6,66.2,46,29.88,10.0,SW,12.7,-,N/A,,Clear,230,2013-07-21 00:36:00
7:58 PM,86.4,67.6,53,29.90,10.0,SSW,12.7,21.9,N/A,,Partly Cloudy,200,2013-07-21 00:58:00
8:58 PM,82.8,67.5,60,29.91,10.0,SSW,8.1,-,N/A,,Clear,210,2013-07-21 01:58:00
9:58 PM,81.0,68.4,65,29.93,10.0,SW,12.7,-,N/A,,Clear,230,2013-07-21 02:58:00
10:58 PM,79.5,69.1,70,29.95,10.0,SW,10.4,-,N/A,,Clear,230,2013-07-21 03:58:00
11:58 PM,78.6,69.3,73,29.96,10.0,SW,2.3,-,N/A,,Clear,230,2013-07-21 04:58:00